星链-36890(STARLINK-36890)

导读

STARLINK-36890(NORAD编号68258)是美国SpaceX公司星链(Starlink)星座中的一颗互联网通信卫星,属于SpaceX大规模低轨卫星组网计划的组成部分。 作为近地轨道卫星,它原本运行于约550公里高度的近地轨道,为全球提供高速卫星互联网接入服务,服务覆盖偏远地区与远洋通信等场景。 2026年SpaceX启动了包括该卫星在内的4400颗星链卫星降轨计划,将其轨道高度调整至480公里,旨在降低碰撞风险,减少太空碎片产生,提升近地轨道运行安全性,应对日益拥挤的太空环境。

基本信息
目录编号:
68258
目录名称:
STARLINK-36890
国际标识:
2026-054AC
轨道中心:
EARTH
卫星名称:
星链-36890
卫星全名:
星链-36890(STARLINK-36890)
卫星状态:
在轨 (已飞行179 天)
发射日期:
2026-03-17 UTC
国别 :
美国 (US)
星等 :
--
该卫星已列入 空间交会检测服务 Space Conjunction Data Service (SCDS) ,当前飞行风险评估等级: 高风险
轨道信息
数据来源 国际轨道数据
星历时间: 2026-09-12T09:54:51+0800
7小时前
查看轨道信息
半长轴: 6840.839km
偏心率: 0.0000986
轨道倾角: 53.158°
近地点辐角 97.135°
升交点赤经 149.377°
平近点角 262.977°
近地点: 462.027km
远地点: 463.377km
周期: 93.848分钟
每日圈数: 15.344006
详细信息
固有亮度:
5
最大亮度:
2.5
卫星平台:
Starlink V1.0
覆盖范围:
全球
运营商:
太空探索技术公司
运营商所在国:
美国
制造商(研发单位):
太空探索技术公司
制造商所在国:
美国
使用方式:
暂无
卫星简介
Starlink 计划是 SpaceX 推出的全球卫星互联网项目,通过发射低轨道卫星,为全球尤其是偏远地区提供高速、低延迟的互联网服务。自 2019 年起,Starlink 已部署数千颗卫星,旨在缩小全球数字鸿沟,推动互联网普及。该项目还为军事、航空等行业提供通信支持,带来广泛经济效益。
2D轨道图
3D轨道图
轨道高度分析图
轨道倾角分析图
轨道综合分析图
查看轨道综合分析图
交会数据列表
事件ID 空间交会对象 最接近时刻(TCA) 交会距离 交会风险概率(CRP) 交会风险指数(CRI) 操作
CDM_260913-192005-229306-825822
2026-09-13T
19:20:25+0000
0.439 km
远距离
2.42904E-4 高风险 0.83
CDM_260914-114505-229306-825822
2026-09-14T
11:45:13+0000
1.279 km
极远距离
1.007989E-5 中风险 0.55
CDM_260914-131905-229306-825821
2026-09-14T
13:19:00+0000
2.172 km
极远距离
2.08015E-6 低风险 0.41
CDM_260914-210605-300106-825821
2026-09-14T
21:06:16+0000
2.379 km
极远距离
1.716842E-6 低风险 0.4
CDM_260914-075705-270606-825821
2026-09-14T
07:57:48+0000
2.483 km
极远距离
1.540157E-6 低风险 0.39
CDM_260913-174605-229306-825823
2026-09-13T
17:46:38+0000
2.737 km
极远距离
1.354291E-6 低风险 0.38
CDM_260913-205405-229306-825821
2026-09-13T
20:54:13+0000
2.751 km
极远距离
1.344838E-6 低风险 0.38
CDM_260912-165805-315806-825823
2026-09-12T
16:58:06+0000
2.709 km
极远距离
1.240967E-6 低风险 0.37
CDM_260912-133305-353706-825823
2026-09-12T
13:33:46+0000
2.935 km
极远距离
1.222234E-6 低风险 0.37
CDM_260912-143705-315806-825821
2026-09-12T
14:37:27+0000
2.871 km
极远距离
1.146701E-6 低风险 0.36
与全量物体交会距离演化趋势
与全量物体交会风险概率演化趋势